World > North America > United States > Pennsylvania > Clarks Mills  

Clarks Mills, PA Hourly Weather Updates

Feedback E-mail the Weather

Quick Clicks

Clarks Mills, PA Weather Maps

°F °C°F °C
Clarks Mills Weather Map
UTC Time: 5/28/2024, 01:16
Your Time:

Clarks Mills, PA Regional Weather

Expires:202405280200;;995495
ASUS41 KCTP 280110
RWRCTP

REGIONAL WEATHER ROUNDUP
NATIONAL WEATHER SERVICE STATE COLLEGE PA
900 PM EDT MON MAY 27 2024

Note: "fair" indicates few or no clouds below 12,000 feet with no 
significant weather and/or obstructions to visibility.

* = STATION THAT DOES NOT REPORT PRECIPITATION /E.G. RAIN...SNOW...ETC/
    THUNDER OR FOG.


PAZ002>004-007>009-013>016-020>023-029>032-280200-
WESTERN PENNSYLVANIA
  
CITY           SKY/WX    TMP DP  RH WIND       PRES   REMARKS
ERIE           CLOUDY    65  55  70 W16G28    29.68R                  
MEADVILLE      CLOUDY    63  53  70 SW14G24   29.72R                  
FRANKLIN       CLOUDY    64  53  67 W15G23    29.74R                  
NEW CASTLE     CLOUDY    65  53  65 W10G21    29.76R                  
BEAVER COUNTY  MOCLDY    66  53  61 W7G18     29.77R                  
BUTLER         MOCLDY    66  56  70 W20G29    29.76R                  
PITTSBURGH INT PTCLDY    69  56  62 NW22G36   29.75R                  
PITTSBURGH     PTCLDY    72  57  59 NW12G22   29.73R                  
INDIANA*       CLEAR     64  64 100 SW6       29.75R                  
LATROBE        PTCLDY    68  64  88 SW7       29.74R                  
CONNELLSVILLE  NOT AVBL                                               
WASHINGTON CO* PTCLDY    70  58  65 W14G22    29.78R                  
$$


SKY/WX - Weather  TMP - Temperature  DP - Dew Point  RH - Humidity
WIND - Wind Direction/Speed PRES - Barometric Pressure VSB - Visibility
WCI - Wind Chill Index E13G22 Wind - East Wind 13 mph/Gusts of 22 mph

Trending Headlines

Trending Entertainment Headlines

Clarks Mills Radar Loop

Use the map search tool if you want to place a location marker on the radar map...

Clarks Mills Quick Facts

National Two Day Weather Forecast


E-mail the Clarks Mills Weather Forecast

Voice your opinion or tell us about page issues...